EA5ILC Weather Reports


Display with metric or nautical units.
time (UTC)temp
F
wind
direction
speed
MPH
gust
MPH
rain 1hr
in
rain 24hr
in
rain mn
in
humidity
%
barometer
mb
20260504033552 60 0.0 0.0 0.06 0.14 0.14 97 1015.4
20260504032550 60 0.0 2.0 0.06 0.14 0.14 97 1015.4
20260504031548 59 0.0 0.0 0.14 0.14 0.14 97 1015.6
20260504030545 59 0.0 0.0 0.14 0.14 0.14 96 1015.6
20260504025542 59 0.0 0.0 0.14 0.14 0.14 96 1015.8
20260504024539 0 0.0 0.0 0.08 0.08 0.08 1015.6
20260504023557 0 0.0 0.0 0.08 0.08 0.08 1015.7
20260504022534 61 0.0 0.0 0.08 0.08 0.08 92 1015.7
20260504021532 61 270 1.0 2.0 0.00 0.00 0.00 91 1015.8
20260504020559 61 158 0.0 2.0 0.00 0.00 0.00 91 1015.8
20260504015556 62 0.0 2.0 0.00 0.00 0.00 90 1015.7
20260504014554 62 165 0.0 2.0 0.00 0.00 0.00 88 1015.9
20260504013551 62 0.0 2.0 0.00 0.00 0.00 87 1015.8
20260504012549 62 187 1.0 2.0 0.00 0.00 0.00 87 1015.7
20260504011546 62 0.0 2.0 0.00 0.00 0.00 89 1015.9
20260504010543 62 0.0 0.0 0.00 0.00 0.00 90 1015.9
20260504005621 62 0.0 0.0 0.00 0.00 0.00 91 1015.9
20260504004538 62 0.0 0.0 0.00 0.00 0.00 91 1015.7
20260504003535 62 0.0 0.0 0.00 0.00 0.00 91 1015.7
20260504002533 62 0.0 0.0 0.00 0.00 0.00 91 1015.8
20260504001550 61 0.0 0.0 0.00 0.00 0.00 91 1015.8
20260504000528 61 0.0 0.0 0.00 0.00 0.00 90 1015.9
20260503235545 61 0 0.0 2.0 0.00 0.00 0.00 90 1016.1
20260503234542 62 352 1.0 4.0 0.00 0.00 0.00 90 1016.3
20260503233520 62 3 2.0 4.0 0.00 0.00 0.00 89 1016.4
20260503232517 62 23 0.0 2.0 0.00 0.00 0.00 87 1016.6
20260503231615 62 0 0.0 4.0 0.00 0.00 0.00 87 1016.5
20260503230612 62 0.0 2.0 0.00 0.00 0.00 87 1016.6
20260503225750 62 0.0 2.0 0.00 0.00 0.00 88 1016.7
20260503224607 62 113 0.0 2.0 0.00 0.00 0.00 88 1016.8
20260503223624 62 90 1.0 2.0 0.00 0.00 0.00 88 1016.8
20260503222602 62 225 1.0 2.0 0.00 0.00 0.00 88 1016.8
20260503221559 61 0.0 2.0 0.00 0.00 0.00 89 1016.9
20260503220556 61 0.0 2.0 0.00 0.00 0.00 89 1017.0
20260503215554 61 121 1.0 2.0 0.00 0.00 0.00 89 1017.0
20260503214551 0 0.0 0.0 0.00 0.00 0.00 1016.8
20260503213548 0 0.0 0.0 0.00 0.00 0.00 1017.0
20260503212546 61 0.0 0.0 0.00 0.00 0.00 93 1017.2
20260503211543 61 0.0 0.0 0.00 0.00 0.00 93 1017.0
20260503210541 61 327 1.0 2.0 0.00 0.00 0.00 94 1016.8
20260503205558 61 332 0.0 2.0 0.00 0.00 0.00 94 1016.9
20260503204536 61 270 1.0 2.0 0.00 0.00 0.00 94 1016.9
20260503203533 61 267 1.0 4.0 0.00 0.00 0.00 94 1016.8
20260503202530 61 284 2.0 4.0 0.00 0.00 0.00 93 1016.6
20260503201527 61 284 1.0 4.0 0.00 0.00 0.00 93 1016.4
20260503200525 61 338 2.0 4.0 0.00 0.00 0.00 93 1016.3
20260503195522 61 253 1.0 4.0 0.00 0.00 0.00 93 1016.1
20260503194520 62 320 0.0 2.0 0.00 0.00 0.00 93 1015.8
20260503193517 62 40 1.0 4.0 0.00 0.00 0.00 92 1015.4
20260503192615 62 133 1.0 2.0 0.00 0.00 0.00 92 1015.2
20260503191612 62 116 1.0 4.0 0.00 0.00 0.00 92 1015.1
20260503190610 62 102 1.0 4.0 0.00 0.00 0.00 92 1015.2
20260503185607 62 262 1.0 4.0 0.00 0.00 0.00 92 1015.2
20260503184605 62 139 2.0 6.0 0.00 0.00 0.00 92 1015.1
20260503183602 62 131 2.0 4.0 0.00 0.00 0.00 91 1015.1
20260503182559 62 135 2.0 4.0 0.00 0.00 0.00 91 1015.0
20260503181557 63 134 2.0 4.0 0.00 0.00 0.00 90 1014.8
20260503180554 63 130 3.0 4.0 0.00 0.00 0.00 89 1014.9
20260503175551 63 140 2.0 4.0 0.00 0.00 0.00 89 1014.9
20260503174549 63 131 2.0 4.0 0.00 0.00 0.00 89 1014.7
20260503173546 63 124 3.0 6.0 0.00 0.00 0.00 88 1014.8
20260503172543 63 152 4.0 6.0 0.00 0.00 0.00 88 1014.8
20260503171541 64 129 3.0 8.0 0.00 0.00 0.00 87 1014.6
20260503170538 64 131 3.0 8.0 0.00 0.00 0.00 87 1014.7
20260503150607 71 256 3.0 8.0 0.00 0.00 0.00 72 1015.0
20260503130536 77 164 3.0 7.0 0.00 0.00 0.00 63 1016.1
20260503110605 68 290 1.0 4.0 0.00 0.00 0.00 75 1017.0
20260503081521 60 334 1.0 4.0 0.00 0.00 0.00 94 1018.4
20260503080518 60 303 2.0 4.0 0.00 0.00 0.00 94 1018.3
20260503072608 60 341 3.0 6.0 0.00 0.00 0.00 94 1017.8
20260503071605 60 303 3.0 7.0 0.00 0.00 0.00 94 1017.8
20260503070603 60 237 3.0 6.0 0.00 0.00 0.00 95 1018.1
20260503054542 60 187 0.0 2.0 0.00 0.00 0.00 95 1017.6
20260503053539 60 142 1.0 4.0 0.00 0.00 0.00 94 1017.4
20260503052536 60 186 2.0 6.0 0.00 0.00 0.00 93 1017.3
20260503051534 60 163 2.0 6.0 0.00 0.00 0.00 92 1017.1
20260503050531 60 177 2.0 4.0 0.00 0.00 0.00 90 1016.7
20260503045549 59 0.0 0.0 0.00 0.00 0.00 92 1016.3
20260503044526 59 0.0 0.0 0.00 0.00 0.00 94 1016.1
20260503043543 59 0.0 0.0 0.00 0.00 0.00 94 1016.2
20260503042521 59 0.0 0.0 0.00 0.00 0.00 94 1016.1
20260503041518 59 0.0 0.0 0.00 0.00 0.00 94 1016.4
20260503040516 59 0.0 0.0 0.00 0.00 0.00 93 1016.4
20260503035613 59 0.0 0.0 0.00 0.00 0.00 93 1016.1
20260503034611 60 0.0 0.0 0.00 0.00 0.00 93 1016.4